Location: ?????
(32.7281°N, 34.9563°E)
Time: 18:43:33
(UTC+00:00)

Cosmos 1455 - Pass Details

Date: 29 October 2020
Orbit: 499 x 521 km, 82.5° (Epoch: 30 November)

Event Time Altitude Azimuth Distance (km) Brightness Sun altitude
Rises 16:13:04 0° 192° (SSW) 2,586 6.0 -17.6°
Reaches altitude 10° 16:15:11 10° 195° (SSW) 1,710 5.1 -18.1°
Maximum altitude 16:18:53 63° 277° (W) 568 2.6 -18.8°
Drops below altitude 10° 16:22:40 10° 359° (N) 1,735 4.8 -19.6°
Sets 16:24:50 0° 3° (N) 2,629 5.7 -20.1°
